Weather History for Hutchinson, MN

Change the Weather History Date:

Saturday, June 15, 2013

  Actual Average Record
Temperature  
Mean Temperature 71 °F -  
Max Temperature 79 °F 78 °F 99 °F (1979)
Min Temperature 63 °F 57 °F 41 °F (1989)
Cooling Degree Days 6    
Growing Degree Days 21 (Base 50)    
Moisture  
Dew Point 63 °F    
Average Humidity 78    
Maximum Humidity 98    
Minimum Humidity 40    
Precipitation  
Precipitation 0.00 in - - ()
Sea Level Pressure  
Sea Level Pressure 29.90 in    
Wind  
Wind Speed 5 mph (WSW)    
Max Wind Speed 12 mph    
Max Gust Speed -    
Visibility 9 miles    
Events      
Averages and records for this station are not official NWS values.
T = Trace of Precipitation, MM = Missing Value Source: NWS Daily Summary

Daily Weather History Graph

Daily Weather History Graph

Search for Another Location

Airport:

Trip Planner

Search our weather history database for the weather conditions in past years. The results will help you decide how hot, cold, wet, or windy it might be!

Date:

Astronomy

Jun. 15, 2013 Rise Set
Actual Time 5:30 AM CDT 9:05 PM CDT
Civil Twilight 4:53 AM CDT 9:42 PM CDT
Nautical Twilight 4:04 AM CDT 10:32 PM CDT
Astronomical Twilight 2:59 AM CDT 11:37 PM CDT
Moon 12:22 PM CDT (6/15) 12:27 AM CDT (6/15)
Length of Visible Light 16h 49m
Length of Day
15h 34m
Waxing Crescent, 40% of the Moon is Illuminated
Jun 15
Waxing Crescent
Jun 16
First Quarter
Jun 23
Full
Jun 29
Last Quarter
Jul 8
New

Hourly Weather History & Observations

Time (CDT) Temp. Dew Point Humidity Pressure Visibility Wind Dir Wind Speed Gust Speed Precip Events Conditions
12:14 AM 69.3 °F 63.1 °F 81% 29.89 in 10.0 mi SE 9.2 mph - N/A   Overcast
12:34 AM 69.8 °F 62.8 °F 78% 29.89 in 10.0 mi SSE 4.6 mph - N/A   Overcast
12:54 AM 69.4 °F 63.0 °F 80% 29.90 in 10.0 mi South 6.9 mph - N/A   Overcast
1:14 AM 68.9 °F 63.1 °F 82% 29.90 in 10.0 mi SE 6.9 mph - N/A   Overcast
1:34 AM 68.2 °F 63.5 °F 85% 29.90 in 10.0 mi SE 6.9 mph - N/A   Mostly Cloudy
1:53 AM 68.0 °F 63.7 °F 86% 29.90 in 10.0 mi SE 6.9 mph - N/A   Mostly Cloudy
2:14 AM 67.6 °F 63.7 °F 87% 29.89 in 10.0 mi SE 3.5 mph - N/A   Overcast
2:34 AM 67.6 °F 64.0 °F 88% 29.89 in 10.0 mi SSE 4.6 mph - N/A   Overcast
2:53 AM 67.1 °F 63.9 °F 89% 29.88 in 10.0 mi SSE 3.5 mph - N/A   Scattered Clouds
3:14 AM 66.6 °F 63.9 °F 91% 29.89 in 10.0 mi SSE 3.5 mph - N/A   Scattered Clouds
3:34 AM 66.2 °F 63.9 °F 92% 29.88 in 10.0 mi SSE 4.6 mph - N/A   Scattered Clouds
3:53 AM 66.2 °F 63.9 °F 92% 29.87 in 10.0 mi SE 3.5 mph - N/A   Clear
4:14 AM 65.8 °F 64.0 °F 94% 29.87 in 10.0 mi South 3.5 mph - N/A   Clear
4:34 AM 65.3 °F 63.9 °F 95% 29.88 in 10.0 mi South 3.5 mph - N/A   Clear
4:53 AM 64.9 °F 63.7 °F 96% 29.88 in 7.0 mi South 4.6 mph - N/A   Clear
5:14 AM 64.8 °F 63.7 °F 96% 29.88 in 7.0 mi Calm Calm - N/A   Clear
5:34 AM 64.4 °F 63.7 °F 98% 29.88 in 5.0 mi Calm Calm - N/A   Clear
5:54 AM 64.2 °F 63.7 °F 98% 29.87 in 5.0 mi SE 3.5 mph - N/A   Clear
6:14 AM 64.4 °F 63.7 °F 98% 29.88 in 5.0 mi Calm Calm - N/A   Clear
6:33 AM 65.5 °F 64.6 °F 97% 29.89 in 7.0 mi SSW 3.5 mph - N/A   Clear
6:54 AM 66.6 °F 64.9 °F 95% 29.89 in 10.0 mi SW 5.8 mph - N/A   Clear
7:14 AM 68.2 °F 65.3 °F 90% 29.89 in 10.0 mi WSW 5.8 mph - N/A   Clear
7:34 AM 69.6 °F 65.8 °F 88% 29.89 in 10.0 mi West 8.1 mph - N/A   Clear
7:53 AM 70.3 °F 66.2 °F 87% 29.89 in 10.0 mi West 8.1 mph - N/A   Clear
8:14 AM 72.0 °F 67.3 °F 85% 29.89 in 10.0 mi West 11.5 mph - N/A   Clear
8:34 AM 72.1 °F 67.1 °F 84% 29.89 in 10.0 mi West 9.2 mph - N/A   Scattered Clouds
8:53 AM 72.3 °F 67.5 °F 85% 29.90 in 10.0 mi NW 11.5 mph - N/A   Scattered Clouds
9:14 AM 72.0 °F 67.5 °F 86% 29.90 in 10.0 mi WNW 10.4 mph - N/A   Mostly Cloudy
9:33 AM 72.9 °F 67.8 °F 84% 29.90 in 10.0 mi NW 9.2 mph - N/A   Scattered Clouds
9:53 AM 73.6 °F 67.8 °F 82% 29.90 in 10.0 mi North 6.9 mph - N/A   Clear
10:13 AM 74.3 °F 68.0 °F 81% 29.90 in 10.0 mi North 8.1 mph - N/A   Clear
10:24 AM 74.5 °F 68.0 °F 80% 29.90 in 10.0 mi North 6.9 mph - N/A   Clear
10:54 AM 74.3 °F 67.3 °F 79% 29.92 in 10.0 mi NNW 10.4 mph - N/A   Mostly Cloudy
11:09 AM 74.3 °F 67.8 °F 80% 29.91 in 10.0 mi NW 10.4 mph - N/A   Overcast
11:18 AM 73.8 °F 67.6 °F 81% 29.90 in 10.0 mi NNW 9.2 mph - N/A   Overcast
11:51 AM 73.9 °F 67.1 °F 79% 29.92 in 10.0 mi NNW 9.2 mph - N/A   Overcast
12:14 PM 74.5 °F 67.6 °F 79% 29.92 in 10.0 mi NNW 6.9 mph - N/A   Mostly Cloudy
12:34 PM 73.9 °F 67.5 °F 80% 29.93 in 10.0 mi NNW 5.8 mph - N/A   Mostly Cloudy
12:53 PM 74.7 °F 67.3 °F 78% 29.92 in 10.0 mi NNE 5.8 mph - N/A   Mostly Cloudy
1:14 PM 74.8 °F 67.6 °F 78% 29.91 in 10.0 mi NE 3.5 mph - N/A   Scattered Clouds
1:34 PM 74.8 °F 67.3 °F 77% 29.91 in 10.0 mi NNE 6.9 mph - N/A   Mostly Cloudy
1:53 PM 74.5 °F 67.3 °F 78% 29.91 in 10.0 mi NE 3.5 mph - N/A   Overcast
2:14 PM 74.8 °F 67.5 °F 78% 29.91 in 10.0 mi Calm Calm - N/A   Overcast
2:34 PM 75.4 °F 67.3 °F 76% 29.90 in 10.0 mi Calm Calm - N/A   Overcast
2:54 PM 71.8 °F 63.1 °F 74% 29.92 in 10.0 mi SSW 6.9 mph - N/A   Overcast
3:14 PM 69.8 °F 64.2 °F 82% 29.94 in 10.0 mi South 9.2 mph - N/A   Overcast
3:34 PM 69.3 °F 63.9 °F 83% 29.93 in 10.0 mi South 8.1 mph - N/A   Overcast
3:54 PM 71.1 °F 62.8 °F 75% 29.92 in 10.0 mi South 3.5 mph - N/A   Overcast
4:14 PM 71.8 °F 62.6 °F 73% 29.91 in 10.0 mi SW 3.5 mph - N/A   Overcast
4:34 PM 74.5 °F 63.1 °F 68% 29.90 in 10.0 mi SW 5.8 mph - N/A   Scattered Clouds
4:54 PM 76.1 °F 63.1 °F 64% 29.89 in 10.0 mi SW 5.8 mph - N/A   Clear
5:14 PM 77.5 °F 63.9 °F 63% 29.89 in 10.0 mi SW 3.5 mph - N/A   Clear
5:34 PM 77.9 °F 63.3 °F 61% 29.88 in 10.0 mi West 4.6 mph - N/A   Clear
5:53 PM 78.4 °F 62.4 °F 58% 29.87 in 10.0 mi NNW 3.5 mph - N/A   Clear
6:14 PM 79.0 °F 61.5 °F 55% 29.87 in 10.0 mi NW 4.6 mph - N/A   Clear
6:34 PM 78.8 °F 61.0 °F 54% 29.87 in 10.0 mi Calm Calm - N/A   Clear
6:53 PM 79.2 °F 61.7 °F 55% 29.87 in 10.0 mi Calm Calm - N/A   Clear
7:14 PM 79.2 °F 59.5 °F 51% 29.87 in 7.0 mi Calm Calm - N/A   Clear
7:34 PM 79.0 °F 59.7 °F 52% 29.88 in 3.0 mi WNW 3.5 mph - N/A   Haze
7:53 PM 77.9 °F 51.4 °F 40% 29.88 in 2.0 mi WNW 6.9 mph - N/A   Haze
8:14 PM 77.2 °F 54.0 °F 44% 29.88 in 1.0 mi NW 4.6 mph - N/A   Haze
8:34 PM 76.1 °F 52.7 °F 44% 29.88 in 0.8 mi WNW 4.6 mph - N/A   Haze
8:54 PM 73.9 °F 56.3 °F 54% 29.88 in 0.8 mi Calm Calm - N/A   Haze
9:13 PM 71.6 °F 57.7 °F 62% 29.89 in 2.0 mi Calm Calm - N/A   Haze
9:34 PM 69.3 °F 60.4 °F 73% 29.90 in 10.0 mi Calm Calm - N/A   Clear
9:53 PM 66.9 °F 58.1 °F 73% 29.90 in 10.0 mi Calm Calm - N/A   Clear
10:14 PM 65.5 °F 59.0 °F 80% 29.91 in 10.0 mi Calm Calm - N/A   Clear
10:34 PM 65.1 °F 58.1 °F 78% 29.92 in 10.0 mi Calm Calm - N/A   Clear
10:54 PM 64.4 °F 58.6 °F 82% 29.92 in 10.0 mi WSW 3.5 mph - N/A   Clear
11:14 PM 63.1 °F 57.4 °F 81% 29.92 in 10.0 mi WSW 4.6 mph - N/A   Clear
11:34 PM 63.3 °F 55.9 °F 77% 29.92 in 10.0 mi Calm Calm - N/A   Clear
11:54 PM 63.0 °F 55.8 °F 77% 29.92 in 10.0 mi Calm Calm - N/A   Clear